Snowfall_Accumulation
0.9 0.9 1.1 1.0 1.0 1.2 1.7 2.9 5.2 4.6 1.5 0.3 0.4 0.3 0.5 0.4 0.3 0.5 0.3 0.2 0.3 0.4 0.5 0.4 0.3 0.2 0.2 0.1 0.1 0.0 0.0 0.0 0.1 0.1 0.0 0.1 0.1 0.0
1.1 1.2 1.2 1.2 1.2 1.2 1.5 1.8 3.1 5.8 4.3 0.7 0.4 0.3 0.4 0.5 0.4 0.6 0.5 0.2 0.3 0.3 0.3 0.5 0.3 0.2 0.2 0.1 0.1 0.1 0.0 0.0 0.1 0.1 0.1 0.0 0.1 0.1
1.2 1.5 1.6 1.5 1.5 1.4 1.6 1.9 2.4 3.9 5.4 1.4 0.3 0.3 0.5 0.6 0.5 0.5 0.4 0.3 0.4 0.2 0.2 0.3 0.3 0.3 0.3 0.3 0.2 0.2 0.1 0.1 0.1 0.1 0.1 0.1 0.1 0.1
1.6 1.8 1.8 1.8 2.1 1.9 2.1 2.2 2.3 3.0 4.7 3.6 1.0 0.7 0.6 0.5 0.4 0.4 0.3 0.3 0.4 0.2 0.2 0.3 0.4 0.4 0.4 0.5 0.2 0.2 0.2 0.1 0.1 0.1 0.1 0.1 0.1 0.1
1.9 2.3 2.3 2.6 2.9 2.4 2.6 2.7 2.5 2.3 3.1 4.0 2.4 1.0 0.9 0.6 0.6 0.7 0.5 0.6 0.3 0.2 0.2 0.2 0.3 0.5 0.5 0.5 0.5 0.3 0.3 0.3 0.2 0.2 0.3 0.2 0.2 0.1
2.3 2.6 3.2 3.7 4.3 4.5 4.3 3.8 3.1 3.5 3.6 4.4 3.7 2.3 1.8 1.2 1.6 1.9 1.8 1.0 0.9 0.8 0.8 0.4 0.6 0.6 0.6 0.5 0.4 0.5 0.5 0.5 0.6 0.5 0.5 0.4 0.4 0.3
3.4 3.1 2.9 3.4 4.2 5.3 6.3 6.5 6.3 7.3 6.5 6.6 5.8 4.3 3.3 3.2 3.3 2.5 2.9 1.9 1.3 1.1 1.2 0.9 0.6 0.7 0.6 0.3 0.3 0.3 0.8 0.7 0.7 0.7 0.6 0.5 0.5 0.5
4.8 3.8 3.1 2.8 3.0 2.9 3.8 4.6 5.6 8.6 9.7 9.8 9.1 8.0 5.2 3.5 3.6 3.8 4.8 5.4 4.6 1.4 1.6 1.8 1.3 1.5 0.9 0.8 0.4 0.5 0.8 0.9 1.0 0.9 0.8 0.8 0.7 0.7
4.0 3.5 3.3 2.8 2.8 2.9 3.3 2.7 3.1 4.0 6.3 8.9 11.4 8.9 6.3 5.4 5.7 6.4 5.9 6.6 5.2 2.9 2.9 4.0 1.9 2.1 1.5 1.1 0.6 0.7 0.7 1.2 1.2 1.2 1.2 1.1 1.2 1.0
3.1 3.4 3.7 3.5 3.3 4.0 4.7 5.0 4.3 4.1 4.7 6.7 9.1 7.8 6.3 6.0 6.8 8.8 8.4 8.6 5.4 3.0 3.0 6.3 2.6 2.2 1.5 1.2 0.8 0.7 0.9 1.0 1.5 1.4 1.4 1.4 1.4 1.4
3.0 4.1 4.5 4.3 4.1 4.7 6.8 7.3 5.4 4.0 3.3 4.5 5.7 6.5 5.5 6.0 8.2 11.1 14.9 15.9 12.8 5.1 3.5 6.1 3.6 2.7 1.9 1.8 1.2 1.1 1.1 1.0 1.1 1.3 1.4 1.7 1.9 1.8
3.2 4.0 5.9 5.9 5.7 5.5 7.4 8.6 8.3 5.0 4.2 4.2 4.4 4.4 4.6 5.2 6.2 9.7 12.7 17.0 15.6 11.4 5.3 5.3 5.2 6.4 6.5 2.6 1.8 1.4 1.4 1.4 1.2 1.1 1.4 1.6 2.2 2.1
5.4 5.5 6.0 5.7 5.6 5.8 6.6 8.0 9.1 7.8 7.0 6.7 5.7 4.9 5.0 5.5 6.4 8.1 9.7 13.6 16.8 14.2 8.6 9.1 9.9 8.9 11.0 6.9 3.0 2.5 2.2 1.9 1.6 1.3 1.2 1.2 1.7 2.5
6.5 5.2 5.7 5.9 6.2 5.8 5.6 5.1 5.8 6.8 7.5 7.1 6.5 5.6 5.1 5.6 6.5 7.7 9.9 11.2 12.0 12.1 9.3 10.6 15.0 12.9 14.5 12.2 7.3 4.2 3.3 2.7 2.6 2.7 2.4 1.9 1.6 2.1
5.8 6.6 6.0 5.5 5.1 4.2 3.6 4.6 4.5 5.5 6.6 7.2 6.5 5.3 4.9 4.6 5.3 6.6 8.1 9.5 9.9 10.0 8.6 8.2 11.0 11.3 14.5 15.5 10.2 6.7 5.5 4.5 3.6 3.8 3.7 3.4 2.9 2.9
5.1 5.3 5.3 4.3 3.7 3.1 3.1 3.4 4.1 5.1 6.9 7.6 6.5 5.2 4.6 5.0 5.9 6.8 8.5 10.0 12.3 11.4 9.8 8.1 8.0 10.8 13.9 11.7 11.2 9.3 7.1 7.3 5.6 4.8 4.3 4.4 3.7 3.1
8.7 8.5 7.0 5.7 5.2 4.5 4.0 3.6 4.1 5.0 5.9 6.1 6.5 6.7 6.4 6.2 6.5 7.0 8.8 10.8 13.0 12.7 12.1 10.9 10.6 11.1 12.6 13.4 13.5 10.3 7.9 7.1 6.6 6.5 5.9 5.8 4.7 4.0
8.8 9.7 7.5 6.4 6.1 5.7 5.0 4.8 4.6 5.2 5.8 6.1 6.6 7.2 7.8 7.6 7.8 7.6 9.3 11.4 12.9 12.4 12.4 12.4 13.9 16.0 16.8 16.0 13.7 11.4 9.1 7.5 6.7 6.6 6.4 7.4 6.2 4.4
7.2 7.3 6.4 6.4 6.2 6.2 6.0 5.9 5.7 5.5 5.9 6.9 7.2 7.7 8.2 9.0 9.2 8.9 9.2 10.7 11.7 11.8 12.1 12.9 15.4 20.6 24.3 20.7 14.6 11.6 10.9 8.9 8.0 7.5 6.6 7.2 7.7 5.6
5.2 6.2 6.3 6.0 6.8 6.8 6.6 6.5 6.2 6.1 6.6 7.1 7.5 7.4 8.2 9.6 9.9 9.6 9.8 11.0 11.9 12.5 12.9 13.2 15.7 19.3 23.6 20.7 17.6 14.6 10.0 10.7 10.4 9.8 7.5 6.5 5.9 4.8
5.6 5.9 6.0 6.4 6.8 6.7 6.8 6.9 7.2 7.2 6.9 7.2 7.5 7.3 7.8 9.7 10.0 9.1 9.5 10.5 12.6 14.2 14.4 13.9 12.8 14.3 17.5 19.7 21.3 18.6 15.2 10.4 8.8 11.0 10.9 10.9 10.0 8.4
6.1 6.3 6.1 6.1 6.2 6.8 6.9 7.0 7.3 6.9 6.7 7.2 7.4 7.4 7.9 9.2 9.8 9.6 10.2 11.5 12.4 12.9 13.3 13.2 12.4 15.5 20.5 23.4 21.5 17.8 17.0 14.4 12.6 8.6 8.5 10.4 15.1 15.8
7.3 7.3 6.5 6.2 6.3 6.6 6.9 7.0 7.1 6.7 6.6 7.1 7.6 7.9 8.3 9.4 9.6 10.2 10.6 11.1 12.1 12.4 12.9 13.8 14.7 17.0 19.5 19.6 20.1 18.8 17.1 14.4 13.9 13.7 13.8 7.5 6.4 7.0